OCN1KL EETN-EVRA

Flight info

Callsign OCN1KL
Flight time N/A
Altitude 24000
Route ORTAX DCT LUTAL
Aircraft A320/M-SDE3FGHIRWY/LB1

Departure

Time 2026-05-05 16:48
Airport Lennart Meri Tallinn Airport (EETN)

Arrival

Time N/A
Airport Riga International Airport (EVRA)
Time Latitude Longitude Altitude Speed Heading
2026-05-05 16:16 59.41572 24.80134 139 ft 0 kts
2026-05-05 16:34 59.41566 24.80133 138 ft 2 kts
2026-05-05 16:34 59.41547 24.80127 138 ft 3 kts 24°
2026-05-05 16:35 59.41532 24.80108 138 ft 3 kts 62°
2026-05-05 16:35 59.41528 24.80085 138 ft 1 kts 90°
2026-05-05 16:35 59.41528 24.80083 138 ft 0 kts 90°
2026-05-05 16:39 59.41528 24.80084 138 ft 0 kts 90°
2026-05-05 16:40 59.41528 24.80111 138 ft 4 kts 90°
2026-05-05 16:40 59.41528 24.80186 138 ft 7 kts 90°
2026-05-05 16:40 59.41527 24.80291 138 ft 9 kts 91°
2026-05-05 16:40 59.41524 24.80403 138 ft 8 kts 97°
2026-05-05 16:41 59.41513 24.80518 138 ft 9 kts 103°
2026-05-05 16:41 59.41506 24.80637 138 ft 8 kts 90°
2026-05-05 16:41 59.41506 24.80755 138 ft 10 kts 90°
2026-05-05 16:41 59.41506 24.80924 139 ft 14 kts 90°
2026-05-05 16:42 59.41505 24.81146 139 ft 18 kts 91°
2026-05-05 16:42 59.41504 24.81417 139 ft 22 kts 90°
2026-05-05 16:42 59.41504 24.81743 139 ft 26 kts 90°
2026-05-05 16:42 59.41504 24.82129 139 ft 30 kts 90°
2026-05-05 16:43 59.41502 24.82570 139 ft 34 kts 90°
2026-05-05 16:43 59.41503 24.83064 140 ft 38 kts 89°
2026-05-05 16:43 59.41499 24.83469 140 ft 23 kts 89°
2026-05-05 16:43 59.41499 24.83770 140 ft 21 kts 90°
2026-05-05 16:44 59.41498 24.84047 140 ft 19 kts 90°
2026-05-05 16:44 59.41497 24.84302 140 ft 18 kts 90°
2026-05-05 16:44 59.41496 24.84536 140 ft 16 kts 90°
2026-05-05 16:44 59.41495 24.84749 141 ft 15 kts 90°
2026-05-05 16:45 59.41486 24.84941 141 ft 13 kts 114°
2026-05-05 16:45 59.41424 24.85001 141 ft 0 kts 177°
2026-05-05 16:46 59.41412 24.85002 141 ft 4 kts 178°
2026-05-05 16:46 59.41363 24.84997 141 ft 10 kts 191°
2026-05-05 16:46 59.41322 24.84869 141 ft 14 kts 270°
2026-05-05 16:46 59.41322 24.84825 141 ft 0 kts 268°
2026-05-05 16:47 59.41321 24.84738 140 ft 30 kts 270°
2026-05-05 16:47 59.41325 24.83845 142 ft 97 kts 270°
2026-05-05 16:47 59.41326 24.82163 140 ft 147 kts 269°
2026-05-05 16:48 59.41315 24.80025 592 ft 157 kts 271°
2026-05-05 16:48 59.41344 24.77886 1405 ft 157 kts 272°
2026-05-05 16:48 59.41065 24.75741 1841 ft 179 kts 233°
2026-05-05 16:48 59.39936 24.74358 2149 ft 207 kts 205°
2026-05-05 16:49 59.38513 24.73279 2524 ft 232 kts 205°
2026-05-05 16:49 59.36941 24.72085 3163 ft 248 kts 205°
2026-05-05 16:49 59.35319 24.70852 4146 ft 251 kts 205°
2026-05-05 16:49 59.33684 24.69607 5173 ft 252 kts 206°
2026-05-05 16:50 59.32050 24.68355 6198 ft 252 kts 207°
2026-05-05 16:50 59.30434 24.67111 7170 ft 252 kts 207°
2026-05-05 16:50 59.28803 24.65850 8157 ft 252 kts 208°
2026-05-05 16:50 59.27176 24.64589 9136 ft 252 kts 208°
2026-05-05 16:51 59.25544 24.63320 10070 ft 254 kts 208°
2026-05-05 16:51 59.23840 24.61982 10429 ft 276 kts 208°
2026-05-05 16:51 59.21983 24.60517 10691 ft 299 kts 208°
2026-05-05 16:51 59.20012 24.58979 11230 ft 309 kts 207°
2026-05-05 16:52 59.17994 24.57427 11961 ft 314 kts 207°
2026-05-05 16:52 59.15946 24.55862 12697 ft 318 kts 208°